Broken Bow, NE

8:57 PM CDT on April 25, 2017 (GMT -0500)
Broken Bow Municipal

Weather History for KBBW - February, 2014

Change the Weather History Date:

Tuesday, February 11, 2014

  Actual Average Record
Temperature  
Mean Temperature 21 °F 27 °F  
Max Temperature 30 °F 39 °F 75 °F (1962)
Min Temperature 11 °F 14 °F -36 °F (1899)
Degree Days  
Heating Degree Days 44 38  
Month to date heating degree days 626 427  
Cooling Degree Days 0 0  
Month to date cooling degree days 0 0  
Year to date cooling degree days 0 0  
Moisture  
Dew Point 15 °F    
Average Humidity 84    
Maximum Humidity 92    
Minimum Humidity 75    
Precipitation  
Precipitation 0.00 in 0.02 in 1.00 in (1908)
Sea Level Pressure  
Sea Level Pressure 30.17 in    
Wind  
Wind Speed 11 mph (SSW)    
Max Wind Speed 23 mph    
Max Gust Speed 29 mph    
Visibility 8 miles    
Events      
T = Trace of Precipitation, MM = Missing Value Source: NWS Daily Summary

Daily Weather History Graph

Daily Weather History Graph

Search for Another Location

Airport or City:

Trip Planner

Search our weather history database for the weather conditions in past years. The results will help you decide how hot, cold, wet, or windy it might be!

Date:

Astronomy

Feb. 11, 2014 Rise Set
Actual Time 7:38 AM CST 6:07 PM CST
Civil Twilight 7:10 AM CST 6:36 PM CST
Nautical Twilight 6:37 AM CST 7:08 PM CST
Astronomical Twilight 6:05 AM CST 7:40 PM CST
Moon 3:28 PM CST (2/11) 5:17 AM CST (2/11)
Length of Visible Light 11h 25m
Length of Day
10h 28m
Waxing Gibbous, 91% of the Moon is Illuminated
Feb 11
Waxing Gibbous
Feb 14
Full
Feb 22
Last Quarter
Mar 1
New
Mar 8
First Quarter

Hourly Weather History & Observations

Time (CST) Temp. Windchill Dew Point Humidity Pressure Visibility Wind Dir Wind Speed Gust Speed Precip Events Conditions
12:53 AM 12.0 °F 1.5 °F 7.0 °F 80% 30.40 in 10.0 mi SW 6.9 mph - N/A   Overcast
1:53 AM 12.0 °F 0.5 °F 8.1 °F 84% 30.38 in 10.0 mi SSW 8.1 mph - N/A   Overcast
2:36 AM 12.2 °F -0.2 °F 8.6 °F 85% 30.22 in 10.0 mi SSW 9.2 mph - N/A   Overcast
2:53 AM 12.0 °F 0.5 °F 8.1 °F 84% 30.37 in 10.0 mi SSW 8.1 mph - N/A   Overcast
3:53 AM 12.0 °F - 8.1 °F 84% 30.34 in 10.0 mi North - - N/A   Overcast
4:53 AM 12.9 °F 1.6 °F 9.0 °F 84% 30.33 in 10.0 mi South 8.1 mph - N/A   Overcast
5:40 AM 12.2 °F -0.2 °F 10.4 °F 92% 30.17 in 7.0 mi South 9.2 mph - N/A   Overcast
5:53 AM 12.0 °F -1.3 °F 10.0 °F 92% 30.32 in 7.0 mi South 10.4 mph - N/A   Overcast
6:26 AM 12.2 °F -0.2 °F 10.4 °F 92% 30.17 in 6.0 mi South 9.2 mph - N/A   Overcast
6:53 AM 12.0 °F -0.4 °F 10.9 °F 95% 30.30 in 7.0 mi South 9.2 mph - N/A   Overcast
7:53 AM 12.9 °F -0.2 °F 10.9 °F 92% 30.30 in 5.0 mi South 10.4 mph 24.2 mph N/A   Overcast
8:40 AM 12.2 °F -1.0 °F 10.4 °F 92% 30.14 in 7.0 mi South 10.4 mph - N/A   Overcast
8:53 AM 12.9 °F -0.9 °F 10.9 °F 92% 30.27 in 7.0 mi South 11.5 mph 23.0 mph N/A   Overcast
9:12 AM 12.2 °F -1.8 °F 12.2 °F 100% 30.13 in 5.0 mi South 11.5 mph - N/A   Overcast
9:24 AM 14.0 °F 0.5 °F 12.2 °F 93% 30.13 in 5.0 mi South 11.5 mph - N/A   Overcast
9:41 AM 15.8 °F 1.4 °F 12.2 °F 86% 30.12 in 7.0 mi South 13.8 mph 24.2 mph N/A   Overcast
9:53 AM 15.1 °F 1.1 °F 12.9 °F 91% 30.26 in 8.0 mi South 12.7 mph 25.3 mph N/A   Overcast
10:00 AM 15.8 °F 0.9 °F 12.2 °F 86% 30.12 in 8.0 mi SSW 15.0 mph 24.2 mph N/A   Overcast
10:34 AM 17.6 °F 3.7 °F 12.2 °F 79% 30.11 in 10.0 mi SSW 13.8 mph 24.2 mph N/A   Overcast
10:53 AM 18.0 °F 2.6 °F 12.9 °F 81% 30.24 in 10.0 mi SSW 17.3 mph 26.5 mph N/A   Scattered Clouds
11:30 AM 17.6 °F 0.9 °F 14.0 °F 86% 30.11 in 10.0 mi SSW 20.7 mph 27.6 mph N/A   Mostly Cloudy
11:53 AM 19.0 °F 5.0 °F 15.1 °F 85% 30.22 in 10.0 mi SSW 15.0 mph 28.8 mph N/A   Mostly Cloudy
12:09 PM 19.4 °F 4.5 °F 15.8 °F 86% 30.09 in 10.0 mi SSW 17.3 mph 26.5 mph N/A   Partly Cloudy
12:53 PM 23.0 °F 8.3 °F 18.0 °F 81% 30.16 in 10.0 mi SSW 19.6 mph 28.8 mph N/A   Clear
1:53 PM 24.1 °F 11.0 °F 19.0 °F 81% 30.12 in 9.0 mi SSW 16.1 mph 26.5 mph N/A   Clear
2:53 PM 26.1 °F 15.0 °F 19.9 °F 78% 30.09 in 7.0 mi SSW 12.7 mph - N/A   Clear
3:53 PM 28.0 °F 17.5 °F 21.9 °F 78% 30.06 in 10.0 mi SSW 12.7 mph - N/A   Clear
4:53 PM 28.0 °F 16.1 °F 23.0 °F 81% 30.04 in 8.0 mi SSW 16.1 mph 27.6 mph N/A   Clear
5:53 PM 28.0 °F 18.6 °F 24.1 °F 85% 30.03 in 8.0 mi SSW 10.4 mph - N/A   Clear
6:53 PM 28.0 °F 21.7 °F 24.1 °F 85% 30.04 in 9.0 mi South 5.8 mph - N/A   Clear
7:53 PM 28.0 °F 20.8 °F 25.0 °F 88% 30.02 in 9.0 mi South 6.9 mph - N/A   Clear
8:53 PM 28.9 °F 21.9 °F 26.1 °F 89% 30.02 in 10.0 mi SSW 6.9 mph - N/A   Overcast
9:53 PM 28.9 °F 19.2 °F 27.0 °F 92% 30.01 in 10.0 mi SW 11.5 mph - N/A   Clear
10:53 PM 27.0 °F 18.7 °F 25.0 °F 92% 30.00 in 8.0 mi WSW 8.1 mph - N/A   Mostly Cloudy
11:53 PM 28.9 °F 20.4 °F 27.0 °F 92% 29.99 in 9.0 mi WSW 9.2 mph - N/A   Overcast